Time,TemperatureF,DewpointF,PressureIn,WindDirection,WindDirectionDegrees,WindSpeedMPH,WindSpeedGustMPH,Humidity,HourlyPrecipIn,Conditions,Clouds,dailyrainin,SoftwareType,DateUTC
2013-06-13 04:39:00,80.8,0.0,29.17,West,270,8.0,8.0,52,0.00,,,0.00,Weather View 32 v70,2013-06-13 09:39:00,
2013-06-13 04:44:00,80.4,0.0,29.17,WNW,292,8.0,8.0,52,0.00,,,0.00,Weather View 32 v70,2013-06-13 09:44:00,
2013-06-13 04:49:00,80.4,0.0,29.17,West,270,9.0,9.0,52,0.00,,,0.00,Weather View 32 v70,2013-06-13 09:49:00,
2013-06-13 04:54:00,80.1,0.0,29.17,West,270,8.0,9.0,52,0.00,,,0.00,Weather View 32 v70,2013-06-13 09:54:00,
2013-06-13 04:59:00,79.9,0.0,29.18,WNW,292,6.0,9.0,53,0.00,,,0.00,Weather View 32 v70,2013-06-13 09:59:00,
2013-06-13 05:04:00,80.1,0.0,29.18,NW,315,6.0,9.0,52,0.00,,,0.00,Weather View 32 v70,2013-06-13 10:04:00,
2013-06-13 05:09:00,79.7,0.0,29.18,West,270,7.0,9.0,52,0.00,,,0.00,Weather View 32 v70,2013-06-13 10:09:00,
2013-06-13 05:14:00,79.3,0.0,29.18,WNW,292,8.0,9.0,52,0.00,,,0.00,Weather View 32 v70,2013-06-13 10:14:00,
2013-06-13 05:19:00,79.3,0.0,29.18,WNW,292,8.0,9.0,52,0.00,,,0.00,Weather View 32 v70,2013-06-13 10:19:00,
2013-06-13 05:24:00,79.3,0.0,29.18,SW,225,7.0,9.0,52,0.00,,,0.00,Weather View 32 v70,2013-06-13 10:24:00,
2013-06-13 05:29:00,79.0,0.0,29.18,NW,315,7.0,9.0,53,0.00,,,0.00,Weather View 32 v70,2013-06-13 10:29:00,
2013-06-13 05:40:00,78.4,0.0,29.20,NW,315,9.0,9.0,53,0.00,,,0.00,Weather View 32 v70,2013-06-13 10:40:00,
2013-06-13 05:49:00,78.3,0.0,29.20,NW,315,7.0,9.0,54,0.00,,,0.00,Weather View 32 v70,2013-06-13 10:49:00,
2013-06-13 05:54:00,78.3,0.0,29.20,WNW,292,7.0,9.0,54,0.00,,,0.00,Weather View 32 v70,2013-06-13 10:54:00,
2013-06-13 05:59:00,78.1,0.0,29.21,SW,225,9.0,9.0,54,0.00,,,0.00,Weather View 32 v70,2013-06-13 10:59:00,
2013-06-13 06:04:00,78.1,0.0,29.21,NW,315,8.0,9.0,54,0.00,,,0.00,Weather View 32 v70,2013-06-13 11:04:00,
2013-06-13 06:14:00,77.7,0.0,29.21,WSW,248,8.0,9.0,55,0.00,,,0.00,Weather View 32 v70,2013-06-13 11:14:00,
2013-06-13 06:19:00,77.5,0.0,29.21,NW,315,8.0,9.0,55,0.00,,,0.00,Weather View 32 v70,2013-06-13 11:19:00,
2013-06-13 06:24:00,77.4,0.0,29.21,NW,315,8.0,9.0,56,0.00,,,0.00,Weather View 32 v70,2013-06-13 11:24:00,
2013-06-13 06:29:00,77.4,0.0,29.21,SW,225,8.0,9.0,56,0.00,,,0.00,Weather View 32 v70,2013-06-13 11:29:00,
2013-06-13 06:34:00,77.0,0.0,29.21,WSW,248,8.0,9.0,56,0.00,,,0.00,Weather View 32 v70,2013-06-13 11:34:00,
2013-06-13 06:39:00,77.2,0.0,29.23,NW,315,8.0,9.0,57,0.00,,,0.00,Weather View 32 v70,2013-06-13 11:39:00,
2013-06-13 06:44:00,77.2,0.0,29.23,WNW,292,7.0,9.0,57,0.00,,,0.00,Weather View 32 v70,2013-06-13 11:44:00,
2013-06-13 06:54:00,76.8,0.0,29.23,WNW,292,7.0,9.0,57,0.00,,,0.00,Weather View 32 v70,2013-06-13 11:54:00,
2013-06-13 06:59:00,76.8,0.0,29.23,NW,315,7.0,9.0,57,0.00,,,0.00,Weather View 32 v70,2013-06-13 11:59:00,
2013-06-13 07:04:00,76.6,0.0,29.23,NW,315,7.0,9.0,57,0.00,,,0.00,Weather View 32 v70,2013-06-13 12:04:00,
2013-06-13 07:09:00,76.5,0.0,29.23,NW,315,8.0,9.0,58,0.00,,,0.00,Weather View 32 v70,2013-06-13 12:09:00,
2013-06-13 07:14:00,76.5,0.0,29.23,WNW,292,7.0,9.0,58,0.00,,,0.00,Weather View 32 v70,2013-06-13 12:14:00,
2013-06-13 07:19:00,76.5,0.0,29.23,WSW,248,6.0,9.0,59,0.00,,,0.00,Weather View 32 v70,2013-06-13 12:19:00,
2013-06-13 07:24:00,76.6,0.0,29.23,West,270,7.0,9.0,58,0.00,,,0.00,Weather View 32 v70,2013-06-13 12:24:00,
2013-06-13 07:29:00,76.5,0.0,29.23,NNW,338,7.0,9.0,58,0.00,,,0.00,Weather View 32 v70,2013-06-13 12:29:00,
2013-06-13 07:34:00,76.5,0.0,29.23,West,270,7.0,9.0,59,0.00,,,0.00,Weather View 32 v70,2013-06-13 12:34:00,
2013-06-13 07:41:00,76.3,0.0,29.24,WSW,248,6.0,9.0,59,0.00,,,0.00,Weather View 32 v70,2013-06-13 12:41:00,
2013-06-13 07:49:00,76.3,0.0,29.24,WNW,292,7.0,8.0,59,0.00,,,0.00,Weather View 32 v70,2013-06-13 12:49:00,
2013-06-13 07:54:00,76.1,0.0,29.24,WNW,292,6.0,8.0,60,0.00,,,0.00,Weather View 32 v70,2013-06-13 12:54:00,
2013-06-13 07:59:00,76.1,0.0,29.25,NW,315,6.0,8.0,59,0.00,,,0.00,Weather View 32 v70,2013-06-13 12:59:00,
2013-06-13 08:04:00,75.9,0.0,29.25,WSW,248,6.0,8.0,59,0.00,,,0.00,Weather View 32 v70,2013-06-13 13:04:00,
2013-06-13 08:09:00,75.9,0.0,29.25,WNW,292,6.0,8.0,59,0.00,,,0.00,Weather View 32 v70,2013-06-13 13:09:00,
2013-06-13 08:14:00,76.1,0.0,29.25,East,90,6.0,7.0,60,0.00,,,0.00,Weather View 32 v70,2013-06-13 13:14:00,
2013-06-13 08:19:00,75.9,0.0,29.26,WNW,292,5.0,7.0,59,0.00,,,0.00,Weather View 32 v70,2013-06-13 13:19:00,
2013-06-13 08:24:00,75.9,0.0,29.26,West,270,6.0,7.0,60,0.00,,,0.00,Weather View 32 v70,2013-06-13 13:24:00,
2013-06-13 08:34:00,75.9,0.0,29.26,WSW,248,7.0,7.0,60,0.00,,,0.00,Weather View 32 v70,2013-06-13 13:34:00,
2013-06-13 08:39:00,76.1,0.0,29.27,West,270,6.0,7.0,61,0.00,,,0.00,Weather View 32 v70,2013-06-13 13:39:00,
2013-06-13 08:44:00,75.9,0.0,29.27,WNW,292,5.0,7.0,61,0.00,,,0.00,Weather View 32 v70,2013-06-13 13:44:00,
2013-06-13 08:49:00,76.1,0.0,29.27,WNW,292,5.0,7.0,61,0.00,,,0.00,Weather View 32 v70,2013-06-13 13:49:00,
2013-06-13 08:54:00,76.1,0.0,29.27,WNW,292,5.0,7.0,61,0.00,,,0.00,Weather View 32 v70,2013-06-13 13:54:00,
2013-06-13 08:59:00,75.9,0.0,29.28,West,270,6.0,7.0,61,0.00,,,0.00,Weather View 32 v70,2013-06-13 13:59:00,
2013-06-13 09:04:00,75.9,0.0,29.28,WNW,292,5.0,7.0,62,0.00,,,0.00,Weather View 32 v70,2013-06-13 14:04:00,
2013-06-13 09:14:00,75.9,0.0,29.28,NE,45,6.0,7.0,62,0.00,,,0.00,Weather View 32 v70,2013-06-13 14:14:00,
2013-06-13 09:19:00,75.9,0.0,29.28,WSW,248,5.0,7.0,62,0.00,,,0.00,Weather View 32 v70,2013-06-13 14:19:00,
2013-06-13 09:24:00,75.9,0.0,29.28,WSW,248,5.0,7.0,62,0.00,,,0.00,Weather View 32 v70,2013-06-13 14:24:00,
2013-06-13 09:29:00,76.1,0.0,29.28,NW,315,5.0,7.0,62,0.00,,,0.00,Weather View 32 v70,2013-06-13 14:29:00,
2013-06-13 09:34:00,76.1,0.0,29.28,NNE,22,5.0,7.0,62,0.00,,,0.00,Weather View 32 v70,2013-06-13 14:34:00,
2013-06-13 09:39:00,76.1,0.0,29.29,WNW,292,5.0,6.0,63,0.00,,,0.00,Weather View 32 v70,2013-06-13 14:39:00,
2013-06-13 09:44:00,76.3,0.0,29.29,WNW,292,4.0,6.0,63,0.00,,,0.00,Weather View 32 v70,2013-06-13 14:44:00,
2013-06-13 09:49:00,76.5,0.0,29.29,NW,315,4.0,6.0,63,0.00,,,0.00,Weather View 32 v70,2013-06-13 14:49:00,
2013-06-13 09:59:00,76.5,0.0,29.29,WSW,248,4.0,6.0,64,0.00,,,0.00,Weather View 32 v70,2013-06-13 14:59:00,
2013-06-13 10:04:00,76.8,0.0,29.29,NW,315,4.0,6.0,64,0.00,,,0.00,Weather View 32 v70,2013-06-13 15:04:00,
2013-06-13 10:09:00,76.8,0.0,29.29,West,270,4.0,6.0,64,0.00,,,0.00,Weather View 32 v70,2013-06-13 15:09:00,
2013-06-13 10:14:00,76.6,0.0,29.29,South,180,4.0,6.0,63,0.00,,,0.00,Weather View 32 v70,2013-06-13 15:14:00,
2013-06-13 10:19:00,76.8,0.0,29.30,WNW,292,5.0,5.0,64,0.00,,,0.00,Weather View 32 v70,2013-06-13 15:19:00,
2013-06-13 10:24:00,76.8,0.0,29.30,West,270,3.0,5.0,65,0.00,,,0.00,Weather View 32 v70,2013-06-13 15:24:00,
2013-06-13 10:29:00,77.2,0.0,29.30,NW,315,3.0,5.0,65,0.00,,,0.00,Weather View 32 v70,2013-06-13 15:29:00,
2013-06-13 10:39:00,77.2,0.0,29.31,WNW,292,5.0,5.0,64,0.00,,,0.00,Weather View 32 v70,2013-06-13 15:39:00,
2013-06-13 10:44:00,77.2,0.0,29.31,WNW,292,5.0,5.0,64,0.00,,,0.00,Weather View 32 v70,2013-06-13 15:44:00,
2013-06-13 10:49:00,77.0,0.0,29.31,NW,315,4.0,5.0,64,0.00,,,0.00,Weather View 32 v70,2013-06-13 15:49:00,
2013-06-13 10:54:00,77.2,0.0,29.31,NNW,338,3.0,5.0,65,0.00,,,0.00,Weather View 32 v70,2013-06-13 15:54:00,
2013-06-13 10:59:00,76.8,0.0,29.32,WNW,292,4.0,5.0,65,0.00,,,0.00,Weather View 32 v70,2013-06-13 15:59:00,
2013-06-13 11:04:00,76.6,0.0,29.32,West,270,4.0,5.0,65,0.00,,,0.00,Weather View 32 v70,2013-06-13 16:04:00,
2013-06-13 11:09:00,76.8,0.0,29.32,South,180,4.0,5.0,65,0.00,,,0.00,Weather View 32 v70,2013-06-13 16:09:00,
2013-06-13 11:14:00,77.2,0.0,29.32,NW,315,4.0,5.0,65,0.00,,,0.00,Weather View 32 v70,2013-06-13 16:14:00,
2013-06-13 11:24:00,77.5,0.0,29.32,NW,315,4.0,5.0,66,0.00,,,0.00,Weather View 32 v70,2013-06-13 16:24:00,
2013-06-13 11:29:00,77.7,0.0,29.32,NW,315,5.0,5.0,65,0.00,,,0.00,Weather View 32 v70,2013-06-13 16:29:00,
2013-06-13 11:34:00,77.9,0.0,29.32,WNW,292,5.0,5.0,65,0.00,,,0.00,Weather View 32 v70,2013-06-13 16:34:00,
2013-06-13 11:39:00,78.3,0.0,29.32,WNW,292,6.0,6.0,65,0.00,,,0.00,Weather View 32 v70,2013-06-13 16:39:00,
2013-06-13 11:44:00,78.3,0.0,29.32,NW,315,6.0,6.0,65,0.00,,,0.00,Weather View 32 v70,2013-06-13 16:44:00,
2013-06-13 11:49:00,78.3,0.0,29.32,WSW,248,5.0,6.0,65,0.00,,,0.00,Weather View 32 v70,2013-06-13 16:49:00,
2013-06-13 11:54:00,78.1,0.0,29.32,WNW,292,6.0,6.0,65,0.00,,,0.00,Weather View 32 v70,2013-06-13 16:54:00,
2013-06-13 12:00:00,78.1,0.0,29.32,NW,315,4.0,6.0,65,0.00,,,0.00,Weather View 32 v70,2013-06-13 17:00:00,
2013-06-13 12:09:00,78.1,0.0,29.32,NW,315,4.0,6.0,65,0.00,,,0.00,Weather View 32 v70,2013-06-13 17:09:00,
2013-06-13 12:14:00,78.3,0.0,29.32,West,270,3.0,6.0,65,0.00,,,0.00,Weather View 32 v70,2013-06-13 17:14:00,
2013-06-13 12:19:00,78.1,0.0,29.32,NNW,338,3.0,6.0,65,0.00,,,0.00,Weather View 32 v70,2013-06-13 17:19:00,
2013-06-13 12:24:00,78.1,0.0,29.32,NNW,338,3.0,6.0,65,0.00,,,0.00,Weather View 32 v70,2013-06-13 17:24:00,
2013-06-13 12:29:00,78.4,0.0,29.32,NW,315,1.0,6.0,65,0.00,,,0.00,Weather View 32 v70,2013-06-13 17:29:00,
2013-06-13 12:34:00,78.3,0.0,29.32,West,270,2.0,6.0,65,0.00,,,0.00,Weather View 32 v70,2013-06-13 17:34:00,
2013-06-13 12:40:00,78.1,0.0,29.32,West,270,4.0,6.0,65,0.00,,,0.00,Weather View 32 v70,2013-06-13 17:40:00,
2013-06-13 12:49:00,79.3,0.0,29.32,WNW,292,3.0,6.0,66,0.00,,,0.00,Weather View 32 v70,2013-06-13 17:49:00,
2013-06-13 12:54:00,79.3,0.0,29.32,WNW,292,3.0,6.0,66,0.00,,,0.00,Weather View 32 v70,2013-06-13 17:54:00,
2013-06-13 12:59:00,79.5,0.0,29.33,NNW,338,4.0,5.0,64,0.00,,,0.00,Weather View 32 v70,2013-06-13 17:59:00,
2013-06-13 13:04:00,79.5,0.0,29.33,NW,315,4.0,5.0,63,0.00,,,0.00,Weather View 32 v70,2013-06-13 18:04:00,
2013-06-13 13:09:00,79.7,0.0,29.33,NNW,338,4.0,5.0,62,0.00,,,0.00,Weather View 32 v70,2013-06-13 18:09:00,
2013-06-13 13:14:00,80.1,0.0,29.33,West,270,4.0,5.0,64,0.00,,,0.00,Weather View 32 v70,2013-06-13 18:14:00,
2013-06-13 13:24:00,80.1,0.0,29.33,WNW,292,2.0,5.0,62,0.00,,,0.00,Weather View 32 v70,2013-06-13 18:24:00,
2013-06-13 13:29:00,80.4,0.0,29.33,West,270,2.0,5.0,63,0.00,,,0.00,Weather View 32 v70,2013-06-13 18:29:00,
2013-06-13 13:34:00,80.8,0.0,29.33,NNW,338,2.0,5.0,63,0.00,,,0.00,Weather View 32 v70,2013-06-13 18:34:00,
2013-06-13 13:39:00,80.8,0.0,29.33,NW,315,3.0,5.0,62,0.00,,,0.00,Weather View 32 v70,2013-06-13 18:39:00,
2013-06-13 13:44:00,81.0,0.0,29.33,NW,315,5.0,5.0,61,0.00,,,0.00,Weather View 32 v70,2013-06-13 18:44:00,
2013-06-13 13:49:00,81.1,0.0,29.33,WNW,292,6.0,6.0,62,0.00,,,0.00,Weather View 32 v70,2013-06-13 18:49:00,
2013-06-13 13:55:00,81.3,0.0,29.33,NW,315,7.0,7.0,60,0.00,,,0.00,Weather View 32 v70,2013-06-13 18:55:00,
2013-06-13 14:04:00,81.5,0.0,29.34,SE,135,2.0,7.0,59,0.00,,,0.00,Weather View 32 v70,2013-06-13 19:04:00,
2013-06-13 14:09:00,81.3,0.0,29.34,West,270,4.0,7.0,59,0.00,,,0.00,Weather View 32 v70,2013-06-13 19:09:00,
2013-06-13 14:14:00,81.7,0.0,29.34,WSW,248,5.0,7.0,59,0.00,,,0.00,Weather View 32 v70,2013-06-13 19:14:00,
2013-06-13 14:19:00,82.2,0.0,29.33,NW,315,6.0,7.0,60,0.00,,,0.00,Weather View 32 v70,2013-06-13 19:19:00,
2013-06-13 14:24:00,82.2,0.0,29.33,West,270,5.0,7.0,59,0.00,,,0.00,Weather View 32 v70,2013-06-13 19:24:00,
2013-06-13 14:29:00,82.6,0.0,29.33,South,180,4.0,7.0,59,0.00,,,0.00,Weather View 32 v70,2013-06-13 19:29:00,
2013-06-13 14:34:00,82.6,0.0,29.33,NNW,338,3.0,7.0,59,0.00,,,0.00,Weather View 32 v70,2013-06-13 19:34:00,
2013-06-13 14:45:00,82.8,0.0,29.33,SE,135,2.0,7.0,55,0.00,,,0.00,Weather View 32 v70,2013-06-13 19:45:00,
2013-06-13 14:54:00,82.2,0.0,29.33,NW,315,2.0,7.0,54,0.00,,,0.00,Weather View 32 v70,2013-06-13 19:54:00,
2013-06-13 14:59:00,82.4,0.0,29.32,SSE,158,2.0,6.0,57,0.00,,,0.00,Weather View 32 v70,2013-06-13 19:59:00,
2013-06-13 15:04:00,82.6,0.0,29.32,NW,315,2.0,6.0,55,0.00,,,0.00,Weather View 32 v70,2013-06-13 20:04:00,
2013-06-13 15:09:00,82.4,0.0,29.32,West,270,3.0,6.0,55,0.00,,,0.00,Weather View 32 v70,2013-06-13 20:09:00,
2013-06-13 15:14:00,82.4,0.0,29.32,NNW,338,3.0,6.0,56,0.00,,,0.00,Weather View 32 v70,2013-06-13 20:14:00,
2013-06-13 15:24:00,82.9,0.0,29.32,NW,315,4.0,5.0,56,0.00,,,0.00,Weather View 32 v70,2013-06-13 20:24:00,
2013-06-13 15:29:00,83.1,0.0,29.32,East,90,3.0,4.0,57,0.00,,,0.00,Weather View 32 v70,2013-06-13 20:29:00,
2013-06-13 15:34:00,82.8,0.0,29.32,SE,135,2.0,4.0,54,0.00,,,0.00,Weather View 32 v70,2013-06-13 20:34:00,
2013-06-13 15:39:00,82.6,0.0,29.32,NW,315,2.0,4.0,55,0.00,,,0.00,Weather View 32 v70,2013-06-13 20:39:00,
2013-06-13 15:44:00,82.4,0.0,29.32,WNW,292,2.0,4.0,55,0.00,,,0.00,Weather View 32 v70,2013-06-13 20:44:00,
2013-06-13 15:49:00,82.9,0.0,29.32,ENE,68,3.0,4.0,56,0.00,,,0.00,Weather View 32 v70,2013-06-13 20:49:00,
2013-06-13 15:54:00,83.1,0.0,29.32,SE,135,2.0,4.0,56,0.00,,,0.00,Weather View 32 v70,2013-06-13 20:54:00,
2013-06-13 16:04:00,83.1,0.0,29.31,NW,315,1.0,4.0,55,0.00,,,0.00,Weather View 32 v70,2013-06-13 21:04:00,
2013-06-13 16:09:00,83.1,0.0,29.31,WNW,292,3.0,4.0,54,0.00,,,0.00,Weather View 32 v70,2013-06-13 21:09:00,
2013-06-13 16:14:00,83.1,0.0,29.31,NW,315,3.0,4.0,54,0.00,,,0.00,Weather View 32 v70,2013-06-13 21:14:00,
2013-06-13 16:19:00,83.3,0.0,29.31,WNW,292,3.0,4.0,54,0.00,,,0.00,Weather View 32 v70,2013-06-13 21:19:00,
2013-06-13 16:24:00,82.9,0.0,29.31,NW,315,2.0,4.0,55,0.00,,,0.00,Weather View 32 v70,2013-06-13 21:24:00,
2013-06-13 16:29:00,83.1,0.0,29.31,SE,135,2.0,4.0,54,0.00,,,0.00,Weather View 32 v70,2013-06-13 21:29:00,
2013-06-13 16:34:00,83.1,0.0,29.31,NW,315,1.0,3.0,53,0.00,,,0.00,Weather View 32 v70,2013-06-13 21:34:00,
2013-06-13 16:39:00,82.9,0.0,29.31,NE,45,1.0,3.0,53,0.00,,,0.00,Weather View 32 v70,2013-06-13 21:39:00,
2013-06-13 16:45:00,82.9,0.0,29.31,ESE,112,1.0,3.0,54,0.00,,,0.00,Weather View 32 v70,2013-06-13 21:45:00,
2013-06-13 16:54:00,83.3,0.0,29.31,WNW,292,3.0,3.0,53,0.00,,,0.00,Weather View 32 v70,2013-06-13 21:54:00,
2013-06-13 16:59:00,83.3,0.0,29.31,ENE,68,4.0,4.0,54,0.00,,,0.00,Weather View 32 v70,2013-06-13 21:59:00,
2013-06-13 17:04:00,83.7,0.0,29.31,NW,315,4.0,4.0,51,0.00,,,0.00,Weather View 32 v70,2013-06-13 22:04:00,
2013-06-13 17:09:00,83.5,0.0,29.31,NW,315,4.0,4.0,51,0.00,,,0.00,Weather View 32 v70,2013-06-13 22:09:00,
2013-06-13 17:14:00,83.7,0.0,29.31,NNW,338,3.0,4.0,50,0.00,,,0.00,Weather View 32 v70,2013-06-13 22:14:00,
2013-06-13 17:24:00,83.7,0.0,29.30,NW,315,3.0,4.0,50,0.00,,,0.00,Weather View 32 v70,2013-06-13 22:24:00,
2013-06-13 17:29:00,83.7,0.0,29.30,NW,315,4.0,4.0,49,0.00,,,0.00,Weather View 32 v70,2013-06-13 22:29:00,
2013-06-13 17:34:00,83.7,0.0,29.30,West,270,5.0,5.0,49,0.00,,,0.00,Weather View 32 v70,2013-06-13 22:34:00,
2013-06-13 17:39:00,83.7,0.0,29.31,West,270,5.0,5.0,48,0.00,,,0.00,Weather View 32 v70,2013-06-13 22:39:00,
2013-06-13 17:44:00,83.7,0.0,29.31,NW,315,4.0,5.0,48,0.00,,,0.00,Weather View 32 v70,2013-06-13 22:44:00,
2013-06-13 17:49:00,83.7,0.0,29.31,West,270,4.0,5.0,49,0.00,,,0.00,Weather View 32 v70,2013-06-13 22:49:00,
2013-06-13 17:59:00,83.3,0.0,29.31,NW,315,3.0,5.0,49,0.00,,,0.00,Weather View 32 v70,2013-06-13 22:59:00,
2013-06-13 18:04:00,83.1,0.0,29.31,NNE,22,3.0,5.0,48,0.00,,,0.00,Weather View 32 v70,2013-06-13 23:04:00,
2013-06-13 18:09:00,83.1,0.0,29.31,NW,315,3.0,5.0,47,0.00,,,0.00,Weather View 32 v70,2013-06-13 23:09:00,
2013-06-13 18:14:00,83.3,0.0,29.31,NW,315,3.0,5.0,47,0.00,,,0.00,Weather View 32 v70,2013-06-13 23:14:00,
2013-06-13 18:19:00,83.3,0.0,29.31,NW,315,3.0,5.0,47,0.00,,,0.00,Weather View 32 v70,2013-06-13 23:19:00,
2013-06-13 18:24:00,83.3,0.0,29.31,NW,315,3.0,5.0,47,0.00,,,0.00,Weather View 32 v70,2013-06-13 23:24:00,
2013-06-13 18:29:00,83.3,0.0,29.31,SW,225,3.0,5.0,47,0.00,,,0.00,Weather View 32 v70,2013-06-13 23:29:00,
2013-06-13 18:39:00,83.3,0.0,29.32,NW,315,3.0,5.0,47,0.00,,,0.00,Weather View 32 v70,2013-06-13 23:39:00,
2013-06-13 18:44:00,83.1,0.0,29.32,WSW,248,3.0,4.0,47,0.00,,,0.00,Weather View 32 v70,2013-06-13 23:44:00,
2013-06-13 18:49:00,83.1,0.0,29.32,NW,315,2.0,4.0,46,0.00,,,0.00,Weather View 32 v70,2013-06-13 23:49:00,
2013-06-13 18:54:00,82.9,0.0,29.32,NW,315,2.0,4.0,47,0.00,,,0.00,Weather View 32 v70,2013-06-13 23:54:00,
2013-06-13 18:59:00,82.8,0.0,29.32,WNW,292,2.0,3.0,47,0.00,,,0.00,Weather View 32 v70,2013-06-13 23:59:00,
2013-06-13 19:04:00,82.8,0.0,29.32,West,270,2.0,3.0,48,0.00,,,0.00,Weather View 32 v70,2013-06-14 00:04:00,
2013-06-13 19:10:00,82.6,0.0,29.32,NW,315,2.0,3.0,49,0.00,,,0.00,Weather View 32 v70,2013-06-14 00:10:00,
2013-06-13 19:19:00,82.4,0.0,29.33,WNW,292,3.0,3.0,49,0.00,,,0.00,Weather View 32 v70,2013-06-14 00:19:00,
2013-06-13 19:24:00,82.4,0.0,29.33,WNW,292,3.0,3.0,49,0.00,,,0.00,Weather View 32 v70,2013-06-14 00:24:00,
2013-06-13 19:29:00,82.2,0.0,29.33,NW,315,3.0,3.0,49,0.00,,,0.00,Weather View 32 v70,2013-06-14 00:29:00,
2013-06-13 19:34:00,82.0,0.0,29.33,NW,315,3.0,3.0,49,0.00,,,0.00,Weather View 32 v70,2013-06-14 00:34:00,
2013-06-13 19:39:00,82.0,0.0,29.33,West,270,3.0,3.0,49,0.00,,,0.00,Weather View 32 v70,2013-06-14 00:39:00,
2013-06-13 19:44:00,81.9,0.0,29.33,NW,315,3.0,3.0,49,0.00,,,0.00,Weather View 32 v70,2013-06-14 00:44:00,
2013-06-13 19:54:00,81.7,0.0,29.33,WNW,292,3.0,3.0,49,0.00,,,0.00,Weather View 32 v70,2013-06-14 00:54:00,
2013-06-13 19:59:00,81.7,0.0,29.34,NW,315,2.0,3.0,49,0.00,,,0.00,Weather View 32 v70,2013-06-14 00:59:00,
2013-06-13 20:04:00,81.5,0.0,29.34,NW,315,2.0,3.0,49,0.00,,,0.00,Weather View 32 v70,2013-06-14 01:04:00,
2013-06-13 20:09:00,81.5,0.0,29.34,WNW,292,2.0,3.0,50,0.00,,,0.00,Weather View 32 v70,2013-06-14 01:09:00,
2013-06-13 20:14:00,81.1,0.0,29.34,WNW,292,2.0,3.0,50,0.00,,,0.00,Weather View 32 v70,2013-06-14 01:14:00,
2013-06-13 20:19:00,81.0,0.0,29.33,West,270,2.0,3.0,50,0.00,,,0.00,Weather View 32 v70,2013-06-14 01:19:00,
2013-06-13 20:24:00,81.0,0.0,29.33,WNW,292,2.0,3.0,50,0.00,,,0.00,Weather View 32 v70,2013-06-14 01:24:00,
2013-06-13 20:30:00,80.8,0.0,29.33,NW,315,2.0,3.0,50,0.00,,,0.00,Weather View 32 v70,2013-06-14 01:30:00,
2013-06-13 20:39:00,80.4,0.0,29.33,West,270,2.0,3.0,50,0.00,,,0.00,Weather View 32 v70,2013-06-14 01:39:00,
2013-06-13 20:44:00,80.6,0.0,29.33,WNW,292,1.0,3.0,50,0.00,,,0.00,Weather View 32 v70,2013-06-14 01:44:00,
2013-06-13 20:49:00,80.2,0.0,29.33,NW,315,0.0,3.0,50,0.00,,,0.00,Weather View 32 v70,2013-06-14 01:49:00,
2013-06-13 20:54:00,80.2,0.0,29.33,NW,315,0.0,3.0,50,0.00,,,0.00,Weather View 32 v70,2013-06-14 01:54:00,
2013-06-13 20:59:00,80.1,0.0,29.33,NW,315,0.0,2.0,50,0.00,,,0.00,Weather View 32 v70,2013-06-14 01:59:00,
2013-06-13 21:04:00,80.1,0.0,29.33,WNW,292,0.0,2.0,50,0.00,,,0.00,Weather View 32 v70,2013-06-14 02:04:00,
2013-06-13 21:10:00,79.7,0.0,29.33,WNW,292,0.0,2.0,50,0.00,,,0.00,Weather View 32 v70,2013-06-14 02:10:00,
2013-06-13 21:19:00,79.5,0.0,29.32,WNW,292,0.0,2.0,50,0.00,,,0.00,Weather View 32 v70,2013-06-14 02:19:00,
2013-06-13 21:24:00,79.5,0.0,29.32,WNW,292,0.0,2.0,50,0.00,,,0.00,Weather View 32 v70,2013-06-14 02:24:00,
2013-06-13 21:29:00,79.3,0.0,29.32,West,270,1.0,2.0,50,0.00,,,0.00,Weather View 32 v70,2013-06-14 02:29:00,
2013-06-13 21:34:00,78.8,0.0,29.32,West,270,1.0,2.0,50,0.00,,,0.00,Weather View 32 v70,2013-06-14 02:34:00,
2013-06-13 21:39:00,78.6,0.0,29.32,West,270,1.0,2.0,50,0.00,,,0.00,Weather View 32 v70,2013-06-14 02:39:00,
2013-06-13 21:44:00,78.6,0.0,29.32,WSW,248,1.0,1.0,50,0.00,,,0.00,Weather View 32 v70,2013-06-14 02:44:00,
2013-06-13 21:54:00,78.3,0.0,29.32,WSW,248,0.0,1.0,50,0.00,,,0.00,Weather View 32 v70,2013-06-14 02:54:00,
2013-06-13 21:59:00,78.1,0.0,29.32,WSW,248,0.0,1.0,50,0.00,,,0.00,Weather View 32 v70,2013-06-14 02:59:00,
2013-06-13 22:04:00,77.9,0.0,29.32,WSW,248,0.0,1.0,50,0.00,,,0.00,Weather View 32 v70,2013-06-14 03:04:00,
2013-06-13 22:09:00,77.7,0.0,29.32,WSW,248,0.0,1.0,51,0.00,,,0.00,Weather View 32 v70,2013-06-14 03:09:00,
2013-06-13 22:14:00,77.5,0.0,29.32,WSW,248,0.0,1.0,51,0.00,,,0.00,Weather View 32 v70,2013-06-14 03:14:00,
2013-06-13 22:19:00,77.2,0.0,29.32,WSW,248,0.0,1.0,51,0.00,,,0.00,Weather View 32 v70,2013-06-14 03:19:00,
2013-06-13 22:25:00,77.2,0.0,29.32,WSW,248,0.0,1.0,51,0.00,,,0.00,Weather View 32 v70,2013-06-14 03:25:00,
2013-06-13 22:34:00,76.6,0.0,29.32,WSW,248,0.0,1.0,52,0.00,,,0.00,Weather View 32 v70,2013-06-14 03:34:00,
2013-06-13 22:39:00,76.6,0.0,29.32,WSW,248,0.0,1.0,52,0.00,,,0.00,Weather View 32 v70,2013-06-14 03:39:00,
2013-06-13 22:44:00,76.6,0.0,29.32,WSW,248,0.0,1.0,52,0.00,,,0.00,Weather View 32 v70,2013-06-14 03:44:00,
2013-06-13 22:49:00,76.6,0.0,29.32,WSW,248,0.0,0.0,52,0.00,,,0.00,Weather View 32 v70,2013-06-14 03:49:00,
2013-06-13 22:54:00,76.5,0.0,29.32,WSW,248,0.0,0.0,52,0.00,,,0.00,Weather View 32 v70,2013-06-14 03:54:00,
2013-06-13 22:59:00,76.5,0.0,29.31,WSW,248,0.0,0.0,52,0.00,,,0.00,Weather View 32 v70,2013-06-14 03:59:00,
2013-06-13 23:05:00,76.5,0.0,29.31,WSW,248,0.0,0.0,52,0.00,,,0.00,Weather View 32 v70,2013-06-14 04:05:00,
2013-06-13 23:10:00,76.5,0.0,29.31,WSW,248,0.0,0.0,52,0.00,,,0.00,Weather View 32 v70,2013-06-14 04:10:00,
2013-06-13 23:14:00,76.3,0.0,29.31,WSW,248,0.0,0.0,52,0.00,,,0.00,Weather View 32 v70,2013-06-14 04:14:00,
2013-06-13 23:19:00,76.3,0.0,29.30,WSW,248,0.0,0.0,52,0.00,,,0.00,Weather View 32 v70,2013-06-14 04:19:00,
2013-06-13 23:24:00,76.3,0.0,29.30,WSW,248,0.0,0.0,52,0.00,,,0.00,Weather View 32 v70,2013-06-14 04:24:00,
2013-06-13 23:29:00,75.9,0.0,29.30,WSW,248,0.0,0.0,52,0.00,,,0.00,Weather View 32 v70,2013-06-14 04:29:00,
2013-06-13 23:34:00,75.7,0.0,29.30,WSW,248,0.0,0.0,52,0.00,,,0.00,Weather View 32 v70,2013-06-14 04:34:00,
2013-06-13 23:39:00,75.9,0.0,29.30,WSW,248,0.0,0.0,53,0.00,,,0.00,Weather View 32 v70,2013-06-14 04:39:00,
2013-06-13 23:44:00,75.7,0.0,29.30,WSW,248,0.0,0.0,53,0.00,,,0.00,Weather View 32 v70,2013-06-14 04:44:00,
2013-06-13 23:50:00,75.9,0.0,29.30,WSW,248,0.0,0.0,53,0.00,,,0.00,Weather View 32 v70,2013-06-14 04:50:00,
2013-06-13 23:59:00,75.7,0.0,29.30,WSW,248,0.0,0.0,53,0.00,,,0.00,Weather View 32 v70,2013-06-14 04:59:00,